Tracking 35275 objects as of 8-Sep-2026
HD Live streaming from Space Station
objects crossing your sky now

STARLINK-34079

Track STARLINK-34079 now!
10-day predictions
STARLINK-34079 is classified as:


NORAD ID: 64038
Int'l Code: 2025-102S
Launch date: May 16, 2025
Source: United States (US)
Launch site: AIR FORCE WESTERN TEST RANGE (AFWTR)
Your satellite tracking list
Your tracking list is empty




NASA's NSSDC Master Catalog

Two Line Element Set (TLE):
1 64038U 25102S   26251.58335648 -.00001751  00000-0 -56483-4 0  9995
2 64038  70.0006  12.4243 0003559 274.7075 317.8787 15.29578165  5775
Source of the keplerian elements: AFSPC